User: anonymous   Login
Location: Unspecified
(0.0000°N, 0.0000°E)
Time: 17:33:22
(UTC+01:00)
Language:

Iridium 15 - Orbit

View from above orbital plane
View from above orbital plane
View from above satellite
View from above satellite

Ground track
Ground track

The orbit data is extracted from the following two-line orbital elements,

1 24869U 97034A   16339.48787793  .00000177  00000-0  56032-4 0  9992
2 24869  86.3961 103.5144 0001819  99.1974 260.9428 14.34211455 16008
Epoch (UTC): 04 December 2016 11:42:32
Eccentricity: 0.0001819
inclination: 86.3961°
perigee height: 776 km
apogee height: 779 km
right ascension of ascending node: 103.5144°
argument of perigee: 99.1974°
revolutions per day: 14.34211455
mean anomaly at epoch: 260.9428°
orbit number at epoch: 1600

The dashed part of the orbit path shows where the satellite is in the earth's shadow,  

DLR